Weather History for Cullman, AL

Change the Weather History Date:

Friday, February 15, 2013

  Actual Average (KHSV) Record (KHSV)
Temperature  
Mean Temperature 44 °F 46 °F  
Max Temperature 57 °F 56 °F 79 °F (1989)
Min Temperature 30 °F 36 °F 8 °F (1960)
Degree Days  
Heating Degree Days 22 19  
Month to date heating degree days 314  
Since 1 July heating degree days 2224  
Cooling Degree Days 0 0  
Month to date cooling degree days 0  
Year to date cooling degree days 0  
Moisture  
Dew Point 33 °F    
Average Humidity 70    
Maximum Humidity 98    
Minimum Humidity 42    
Precipitation  
Precipitation 0.00 in 0.18 in 3.45 in (1995)
Month to date precipitation 2.53  
Year to date precipitation 7.42  
Snow  
Snow 0.00 in - - ()
Month to date snowfall  
Since 1 July snowfall  
Snow Depth -    
Sea Level Pressure  
Sea Level Pressure 30.10 in    
Wind  
Wind Speed 3 mph (NW)    
Max Wind Speed 12 mph    
Max Gust Speed 18 mph    
Visibility 10 miles    
Events      
T = Trace of Precipitation, MM = Missing Value Source: NWS Daily Summary

Daily Weather History Graph

Daily Weather History Graph

Search for Another Location

Airport:

Trip Planner

Search our weather history database for the weather conditions in past years. The results will help you decide how hot, cold, wet, or windy it might be!

Date:

Astronomy

Feb. 15, 2013 Rise Set
Actual Time 6:32 AM CST 5:31 PM CST
Civil Twilight 6:06 AM CST 5:57 PM CST
Nautical Twilight 5:37 AM CST 6:26 PM CST
Astronomical Twilight 5:08 AM CST 6:55 PM CST
Moon 9:25 AM CST (2/15) 11:13 PM CST (2/15)
Length of Visible Light 11h 50m
Length of Day
10h 59m
Waxing Crescent, 30% of the Moon is Illuminated
Feb 15
Waxing Crescent
Feb 17
First Quarter
Feb 25
Full
Mar 4
Last Quarter
Mar 11
New

Hourly Weather History & Observations

Time (CST) Temp. Windchill Dew Point Humidity Pressure Visibility Wind Dir Wind Speed Gust Speed Precip Events Conditions
12:15 AM 35.4 °F - 33.3 °F 92% 30.08 in 10.0 mi Calm Calm - N/A   Clear
12:35 AM 35.2 °F - 33.1 °F 92% 30.09 in 10.0 mi Calm Calm - N/A   Clear
12:55 AM 35.2 °F - 33.8 °F 94% 30.09 in 10.0 mi Calm Calm - N/A   Clear
1:15 AM 35.2 °F - 33.4 °F 93% 30.09 in 10.0 mi Calm Calm - N/A   Clear
1:35 AM 35.1 °F - 33.3 °F 93% 30.08 in 10.0 mi Calm Calm - N/A   Clear
1:55 AM 34.9 °F - 33.3 °F 94% 30.08 in 10.0 mi Calm Calm - N/A   Clear
2:15 AM 34.7 °F - 33.6 °F 96% 30.09 in 10.0 mi Calm Calm - N/A   Clear
2:35 AM 33.4 °F - 32.4 °F 96% 30.08 in 10.0 mi Calm Calm - N/A   Clear
2:55 AM 33.1 °F - 32.4 °F 97% 30.08 in 10.0 mi Calm Calm - N/A   Clear
3:15 AM 32.7 °F - 32.0 °F 97% 30.08 in 10.0 mi Calm Calm - N/A   Clear
3:35 AM 32.2 °F - 31.6 °F 98% 30.09 in 10.0 mi Calm Calm - N/A   Clear
3:55 AM 32.5 °F - 32.0 °F 98% 30.10 in 10.0 mi Calm Calm - N/A   Clear
4:15 AM 32.4 °F 29.1 °F 31.6 °F 97% 30.10 in 10.0 mi South 3.5 mph - N/A   Clear
4:35 AM 33.3 °F 30.2 °F 32.4 °F 96% 30.10 in 10.0 mi South 3.5 mph - N/A   Clear
4:55 AM 33.6 °F - 32.4 °F 95% 30.11 in 10.0 mi Calm Calm - N/A   Clear
5:15 AM 32.0 °F - 30.6 °F 94% 30.11 in 10.0 mi Calm Calm - N/A   Clear
5:35 AM 30.7 °F - 30.2 °F 98% 30.11 in 10.0 mi Calm Calm - N/A   Clear
5:55 AM 30.6 °F - 29.8 °F 97% 30.11 in 10.0 mi Calm Calm - N/A   Clear
6:15 AM 30.4 °F - 29.8 °F 98% 30.12 in 10.0 mi Calm Calm - N/A   Clear
6:35 AM 30.4 °F - 29.8 °F 98% 30.12 in 7.0 mi Calm Calm - N/A   Clear
6:55 AM 30.6 °F - 30.0 °F 98% 30.12 in 7.0 mi Calm Calm - N/A   Clear
7:15 AM 31.3 °F - 30.6 °F 97% 30.12 in 7.0 mi Calm Calm - N/A   Clear
7:35 AM 34.0 °F 31.0 °F 32.4 °F 94% 30.12 in 10.0 mi South 3.5 mph - N/A   Clear
7:55 AM 39.6 °F 36.3 °F 36.3 °F 88% 30.12 in 10.0 mi SSW 4.6 mph - N/A   Clear
8:15 AM 43.2 °F - 37.6 °F 81% 30.13 in 10.0 mi Calm Calm - N/A   Clear
8:35 AM 46.0 °F 43.9 °F 37.8 °F 73% 30.13 in 10.0 mi WSW 4.6 mph - N/A   Clear
8:55 AM 48.0 °F - 37.9 °F 68% 30.13 in 10.0 mi West 5.8 mph - N/A   Clear
9:15 AM 48.7 °F - 37.9 °F 66% 30.13 in 10.0 mi West 5.8 mph - N/A   Clear
9:35 AM 50.0 °F - 37.9 °F 63% 30.13 in 10.0 mi West 3.5 mph - N/A   Clear
9:55 AM 51.4 °F - 38.5 °F 61% 30.13 in 10.0 mi WNW 5.8 mph - N/A   Clear
10:15 AM 52.0 °F - 38.1 °F 59% 30.14 in 10.0 mi NW 4.6 mph - N/A   Clear
10:35 AM 52.5 °F - 38.3 °F 58% 30.14 in 10.0 mi NW 6.9 mph - N/A   Clear
10:55 AM 53.1 °F - 37.9 °F 57% 30.14 in 10.0 mi NNW 6.9 mph 17.3 mph N/A   Clear
11:15 AM 54.0 °F - 38.3 °F 55% 30.13 in 10.0 mi NW 6.9 mph - N/A   Scattered Clouds
11:55 AM 55.4 °F - 37.6 °F 51% 30.11 in 10.0 mi NW 4.6 mph - N/A   Clear
12:15 PM 56.5 °F - 36.9 °F 48% 30.11 in 10.0 mi NW 6.9 mph - N/A   Clear
12:35 PM 56.8 °F - 36.0 °F 46% 30.09 in 10.0 mi NW 6.9 mph - N/A   Clear
12:55 PM 57.2 °F - 34.2 °F 42% 30.09 in 10.0 mi NNW 4.6 mph - N/A   Clear
1:15 PM 56.8 °F - 33.8 °F 42% 30.08 in 10.0 mi NW 6.9 mph - N/A   Scattered Clouds
1:35 PM 56.8 °F - 34.3 °F 43% 30.07 in 10.0 mi North 6.9 mph - N/A   Mostly Cloudy
1:55 PM 57.4 °F - 34.2 °F 42% 30.07 in 10.0 mi WSW 9.2 mph - N/A   Scattered Clouds
2:15 PM 55.8 °F - 33.3 °F 43% 30.07 in 10.0 mi NW 8.1 mph - N/A   Scattered Clouds
2:35 PM 56.3 °F - 34.0 °F 43% 30.07 in 10.0 mi WNW 9.2 mph - N/A   Scattered Clouds
2:55 PM 55.8 °F - 34.3 °F 44% 30.07 in 10.0 mi NW 9.2 mph - N/A   Mostly Cloudy
3:15 PM 53.2 °F - 34.2 °F 48% 30.08 in 10.0 mi NW 8.1 mph 17.3 mph N/A   Scattered Clouds
3:35 PM 51.4 °F - 34.3 °F 52% 30.09 in 10.0 mi NNW 9.2 mph 17.3 mph N/A   Scattered Clouds
3:55 PM 50.7 °F - 34.3 °F 53% 30.09 in 10.0 mi NW 8.1 mph - N/A   Scattered Clouds
4:15 PM 50.4 °F - 33.3 °F 52% 30.09 in 10.0 mi NW 11.5 mph 16.1 mph N/A   Clear
4:35 PM 49.8 °F - 32.9 °F 52% 30.09 in 10.0 mi NW 10.4 mph 17.3 mph N/A   Clear
4:55 PM 48.6 °F - 32.9 °F 55% 30.09 in 10.0 mi NNW 5.8 mph - N/A   Scattered Clouds
5:15 PM 47.8 °F - 32.9 °F 56% 30.09 in 10.0 mi NNW 6.9 mph - N/A   Mostly Cloudy
5:35 PM 47.5 °F - 32.5 °F 56% 30.10 in 10.0 mi NNW 3.5 mph - N/A   Overcast
5:55 PM 47.3 °F - 32.5 °F 57% 30.09 in 10.0 mi NNW 4.6 mph - N/A   Overcast
6:15 PM 46.9 °F - 32.2 °F 57% 30.09 in 10.0 mi NNW 4.6 mph - N/A   Overcast
6:35 PM 46.6 °F - 32.4 °F 58% 30.10 in 10.0 mi NNW 3.5 mph - N/A   Overcast
6:55 PM 46.4 °F 45.2 °F 32.5 °F 59% 30.10 in 10.0 mi North 3.5 mph - N/A   Overcast
7:15 PM 45.9 °F 42.9 °F 32.4 °F 59% 30.10 in 10.0 mi North 5.8 mph - N/A   Overcast
7:35 PM 45.5 °F 44.2 °F 32.0 °F 59% 30.10 in 10.0 mi North 3.5 mph - N/A   Mostly Cloudy
7:55 PM 45.0 °F 43.5 °F 32.0 °F 60% 30.10 in 10.0 mi North 3.5 mph - N/A   Mostly Cloudy
8:15 PM 44.2 °F 42.7 °F 32.0 °F 62% 30.11 in 10.0 mi North 3.5 mph - N/A   Scattered Clouds
8:35 PM 43.7 °F 42.1 °F 32.0 °F 63% 30.11 in 10.0 mi North 3.5 mph - N/A   Clear
8:55 PM 43.3 °F - 32.0 °F 64% 30.11 in 10.0 mi Calm Calm - N/A   Clear
9:15 PM 42.8 °F - 32.0 °F 66% 30.11 in 10.0 mi Calm Calm - N/A   Clear
9:35 PM 42.6 °F 39.9 °F 32.2 °F 67% 30.12 in 10.0 mi North 4.6 mph - N/A   Clear
9:55 PM 42.8 °F 37.5 °F 31.6 °F 65% 30.12 in 10.0 mi NNW 9.2 mph - N/A   Clear
10:15 PM 42.3 °F 36.8 °F 30.2 °F 62% 30.12 in 10.0 mi North 9.2 mph 18.4 mph N/A   Clear
10:35 PM 41.0 °F 36.4 °F 28.8 °F 62% 30.12 in 10.0 mi North 6.9 mph - N/A   Clear
10:55 PM 40.3 °F 37.1 °F 28.4 °F 63% 30.12 in 10.0 mi North 4.6 mph - N/A   Clear
11:15 PM 39.6 °F 32.5 °F 28.4 °F 64% 30.12 in 10.0 mi North 11.5 mph - N/A   Clear
11:35 PM 38.8 °F 32.6 °F 28.4 °F 66% 30.12 in 10.0 mi North 9.2 mph - N/A   Clear
11:55 PM 38.3 °F 32.5 °F 28.4 °F 68% 30.11 in 10.0 mi North 8.1 mph - N/A   Clear